Terminal Aerodrome Forecast
Issued by NWS Memphis, TN

Home | Current Version | Previous Version | Text Only | Print | Product List | Glossary On
Versions: 1 2 3 4 5 6 7 8 9 10 11 12 13 14 15 16 17 18 19 20 21 22 23 24 25 26 27 28 29 30 31 32 33 34
000
FTUS44 KMEG 071720
TAFMEM
TAF
KMEM 071720Z 0718/0818 23011G23KT P6SM SCT027 SCT250
     FM072100 21012G20KT P6SM VCTS SCT030CB OVC250
     FM080300 20008KT P6SM OVC250
     FM081300 22011G18KT P6SM BKN250=

USA.gov is the U.S. government's official web portal to all federal, state and local government web resources and services.